Hourly Data Report for September 09, 2020

GIMLI CLIMATE
MANITOBA
Current Station Operator: ECCC - MSC

50°38'00.000" N
97°03'00.000" W
230.10 m
5031042
71748
PGH

Download Data

Hourly Data (September 2020)
Hourly Data Report for September 9, 2020
TIME Temp Definition
°C
Dew Point Definition
°C
Rel Hum Definition
%
Wind Dir Definition
10's deg

Wind Spd Definition
km/h
Visibility Definition
km
Stn Press Definition
kPa
Hmdx Definition


Wind Chill Definition


Weather Definition


00:00 2.0 0.6 90 24 2   100.06     LegendNANA
01:00 1.8 0.0 88 22 3   100.04     LegendNANA
02:00 1.3 -0.4 88 18 5   100.00     LegendNANA
03:00 1.2 -0.9 86 19 5   99.98     LegendNANA
04:00 0.9 -0.9 88 19 9   99.96     LegendNANA
05:00 0.5 -1.1 89 20 10   99.98     LegendNANA
06:00 1.2 -0.8 87 19 13   99.96     LegendNANA
07:00 1.2 -0.8 86 18 11   99.94     LegendNANA
08:00 5.9 1.2 72 19 15   99.93     LegendNANA
09:00 9.0 -0.2 53 20 18   99.94     LegendNANA
10:00 11.0 -1.4 42 21 20   99.93     LegendNANA
11:00 12.9 -1.9 36 22 22   99.88     LegendNANA
12:00 14.1 -2.8 31 20 29   99.83     LegendNANA
13:00 14.4 -3.7 28 20 25   99.80     LegendNANA
14:00 14.7 -3.1 29 20 28   99.74     LegendNANA
15:00 15.0 -3.6 28 21 19   99.67     LegendNANA
16:00 15.6 -3.9 26 21 21   99.64     LegendNANA
17:00 15.5 -3.2 27 21 22   99.59     LegendNANA
18:00 13.9 -2.7 32 20 17   99.57     LegendNANA
19:00 11.9 -2.4 37 17 11   99.54     LegendNANA
20:00 10.0 -1.8 44 17 11   99.55     LegendNANA
21:00 8.5 -1.1 51 18 14   99.54     LegendNANA
22:00 8.0 -1.1 52 19 17   99.52     LegendNANA
23:00 6.9 -0.5 59 19 14   99.48     LegendNANA

Notes on Data Quality.

Legend

  • E = Estimated
  • M = Missing
  • NA = Not Available*
  • [empty] = Indicates an unobserved value
Date modified: